Weather History for Pardubice, Czech Republic

Change the Weather History Date:

Friday, September 20, 2013

  Actual Average Record
Temperature  
Mean Temperature 48 °F -  
Max Temperature 55 °F - - ()
Min Temperature 42 °F - - ()
Degree Days  
Heating Degree Days 16    
Moisture  
Dew Point 48 °F    
Average Humidity 90    
Maximum Humidity 100    
Minimum Humidity 77    
Precipitation  
Precipitation 0.00 in - - ()
Sea Level Pressure  
Sea Level Pressure 29.97 in    
Wind  
Wind Speed 2 mph ()    
Max Wind Speed 12 mph    
Max Gust Speed -    
Visibility 4.9 miles    
Events Rain    
T = Trace of Precipitation, MM = Missing Value Source: Averaged Metar Reports

Daily Weather History Graph

Daily Weather History Graph

Search for Another Location

Airport:

Trip Planner

Search our weather history database for the weather conditions in past years. The results will help you decide how hot, cold, wet, or windy it might be!

Date:

Astronomy

Sep. 20, 2013 Rise Set
Actual Time 6:40 AM CEST 6:59 PM CEST
Civil Twilight 6:08 AM CEST 7:31 PM CEST
Nautical Twilight 5:29 AM CEST 8:09 PM CEST
Astronomical Twilight 4:49 AM CEST 8:49 PM CEST
Moon 7:10 PM CEST (9/20) 7:45 AM CEST (9/20)
Length of Visible Light 13h 23m
Length of Day
12h 19m
Full, 99% of the Moon is Illuminated
Sep 20
Full
Sep 27
Last Quarter
Oct 5
New
Oct 12
First Quarter
Oct 19
Full

Hourly Weather History & Observations

Time (CEST) Temp. Windchill Dew Point Humidity Pressure Visibility Wind Dir Wind Speed Gust Speed Precip Events Conditions
12:00 AM 46.4 °F 45.2 °F 42.8 °F 87% 29.95 in - West 3.5 mph - N/A   Clear
1:00 AM 46.4 °F - 42.8 °F 87% 29.95 in - Calm Calm - N/A   Clear
2:00 AM 42.8 °F - 41.0 °F 93% 29.95 in - Calm Calm - N/A   Clear
3:00 AM 44.6 °F - 42.8 °F 93% 29.95 in - Calm Calm - N/A   Clear
4:00 AM 44.6 °F - 42.8 °F 93% 29.95 in - Calm Calm - N/A   Clear
5:00 AM 44.6 °F - 42.8 °F 93% 29.95 in - East 1.2 mph - N/A   Clear
6:00 AM 44.6 °F - 42.8 °F 93% 29.95 in - East 2.3 mph - N/A   Clear
7:00 AM 46.4 °F - 44.6 °F 93% 29.95 in - East 2.3 mph - N/A   Clear
8:00 AM 48.2 °F - 44.6 °F 87% 29.95 in - Variable 1.2 mph - N/A   Clear
9:00 AM 50.0 °F - 46.4 °F 87% 29.95 in - Variable 2.3 mph - N/A   Clear
10:00 AM 51.8 °F - 48.2 °F 88% 29.95 in 6.2 mi Calm Calm - N/A Rain Light Rain
11:00 AM 53.6 °F - 46.4 °F 77% 29.95 in 6.2 mi WSW 4.6 mph - N/A   Overcast
12:00 PM 53.6 °F - 48.2 °F 82% 29.95 in 6.2 mi Variable 1.2 mph - N/A   Overcast
1:00 PM 53.6 °F - 48.2 °F 82% 29.95 in 6.2 mi West 11.5 mph - N/A   Overcast
2:00 PM 55.4 °F - 48.2 °F 77% 29.95 in 6.2 mi West 5.8 mph - N/A   Overcast
3:00 PM 53.6 °F - 50.0 °F 88% 29.95 in 4.3 mi West 3.5 mph - N/A Rain Light Rain Showers
3:52 PM 53.6 °F - 51.8 °F 94% 29.95 in 2.5 mi West 3.5 mph - N/A Rain Light Rain Showers
4:00 PM 53.6 °F - 51.8 °F 94% 29.95 in 2.5 mi WNW 3.5 mph - N/A Rain Light Rain Showers
4:39 PM 53.6 °F - 51.8 °F 94% 29.98 in 1.6 mi Variable 2.3 mph - N/A Rain Light Rain Showers
5:00 PM 53.6 °F - 51.8 °F 94% 29.98 in 4.3 mi Variable 2.3 mph - N/A Rain Light Rain Showers
6:00 PM 55.4 °F - 51.8 °F 88% 29.98 in 6.2 mi West 5.8 mph - N/A   Mostly Cloudy
7:00 PM 51.8 °F - 51.8 °F 100% 30.01 in - Calm Calm - N/A   Clear
8:00 PM 53.6 °F - 51.8 °F 94% 30.01 in - Calm Calm - N/A   Clear
9:00 PM 53.6 °F - 51.8 °F 94% 30.01 in - West 8.1 mph - N/A   Clear
10:00 PM 53.6 °F - 50.0 °F 88% 30.04 in - West 5.8 mph - N/A   Clear
11:00 PM 53.6 °F - 50.0 °F 88% 30.04 in 6.2 mi West 6.9 mph - N/A   Mostly Cloudy